Terminal Aerodrome Forecast
Issued by NWS Missoula, MT

Home | Current Version | Previous Version | Text Only | Print | Product List | Glossary On
Versions: 1 2 3 4 5 6 7 8 9 10 11 12 13 14 15 16
000
FTUS45 KMSO 182300
TAFMSO
TAF
KMSO 182325Z 1900/1924 29018G30KT P6SM BKN080
     FM190300 27006KT P6SM FEW080
     FM192100 24008KT P6SM SCT090=

USA.gov is the U.S. government's official web portal to all federal, state and local government web resources and services.